Tracking 33200 objects as of 17-Feb-2026
HD Live streaming from Space Station
objects crossing your sky now

SL-8 R/B

Track SL-8 R/B now!
10-day predictions


NORAD ID: 12983
Int'l Code: 1981-116J
Perigee: 1,487.2 km
Apogee: 1,670.5 km
Inclination: 74.0 °
Period: 117.6 minutes
Semi major axis: 7949 km
RCS: 5.9807 m2 (large)
Launch date: November 28, 1981
Source: Commonwealth of Independent States (former USSR) (CIS)
Launch site: PLESETSK MISSILE AND SPACE COMPLEX (PKMTR)

Note: This is a ROCKET BODY
Your satellite tracking list
Your tracking list is empty




NASA's NSSDC Master Catalog

Two Line Element Set (TLE):
1 12983U 81116J   26048.28939370 -.00000015  00000-0  21282-6 0  9999
2 12983  73.9886 341.1621 0115289 222.3595 296.0537 12.24801361711759
Source of the keplerian elements: AFSPC